Hamilton Island, Australia

8:17 PM AEST on May 28, 2017 (GMT +1000)
Hamilton Island

Weather History for YBHM - December, 2013

Change the Weather History Date:

Sunday, December 15, 2013

  Actual Average Record
Temperature  
Mean Temperature 80 °F -  
Max Temperature 84 °F - - ()
Min Temperature 76 °F - - ()
Cooling Degree Days 15    
Growing Degree Days 30 (Base 50)    
Moisture  
Dew Point 69 °F    
Average Humidity 69    
Maximum Humidity 83    
Minimum Humidity 50    
Precipitation  
Precipitation 0.00 in - - ()
Sea Level Pressure  
Sea Level Pressure 29.90 in    
Wind  
Wind Speed 18 mph ()    
Max Wind Speed 26 mph    
Max Gust Speed -    
T = Trace of Precipitation, MM = Missing Value Source: Averaged Metar Reports

Daily Weather History Graph

Daily Weather History Graph

Search for Another Location

Airport or City:

Trip Planner

Search our weather history database for the weather conditions in past years. The results will help you decide how hot, cold, wet, or windy it might be!

Date:

Astronomy

Dec. 15, 2013 Rise Set
Actual Time 5:18 AM AEST 6:40 PM AEST
Civil Twilight 4:53 AM AEST 7:04 PM AEST
Nautical Twilight 4:24 AM AEST 7:33 PM AEST
Astronomical Twilight 3:54 AM AEST 8:04 PM AEST
Moon 4:50 PM AEST (12/15) 3:28 AM AEST (12/15)
Length of Visible Light 14h 10m
Length of Day
13h 21m
Waxing Gibbous, 95% of the Moon is Illuminated
Dec 15
Waxing Gibbous
Dec 17
Full
Dec 25
Last Quarter
Jan 1
New
Jan 8
First Quarter

Hourly Weather History & Observations

Time (AEST) Temp. Heat Index Dew Point Humidity Pressure Visibility Wind Dir Wind Speed Gust Speed Precip Events Conditions
12:00 AM 77 °F - 71 °F 76% 29.88 in - ESE 16.1 mph - -  
12:00 AM 77.0 °F - 71.6 °F 83% 29.89 in - ESE 16.1 mph - N/A   Unknown
12:30 AM 77.0 °F - 69.8 °F 78% 29.89 in - ESE 13.8 mph - N/A   Unknown
1:00 AM 77.0 °F - 69.8 °F 78% 29.86 in - SE 16.1 mph - N/A   Unknown
1:30 AM 77.0 °F - 69.8 °F 78% 29.86 in - SE 15.0 mph - N/A   Unknown
2:00 AM 77.0 °F - 71.6 °F 83% 29.86 in - ESE 16.1 mph - N/A   Unknown
2:30 AM 77.0 °F - 69.8 °F 78% 29.86 in - SE 16.1 mph - N/A   Unknown
3:00 AM 77 °F - 71 °F 76% 29.85 in - SE 16.1 mph - -  
3:00 AM 77.0 °F - 71.6 °F 83% 29.86 in - SE 16.1 mph - N/A   Unknown
3:30 AM 77.0 °F - 69.8 °F 78% 29.86 in - SE 15.0 mph - N/A   Unknown
4:00 AM 77.0 °F - 69.8 °F 78% 29.86 in - SE 15.0 mph - N/A   Unknown
4:30 AM 77.0 °F - 69.8 °F 78% 29.86 in - ESE 16.1 mph - N/A   Unknown
5:00 AM 77.0 °F - 68.0 °F 74% 29.86 in - SE 18.4 mph - N/A   Unknown
5:30 AM 77.0 °F - 68.0 °F 74% 29.89 in - SE 18.4 mph - N/A   Unknown
6:00 AM 78 °F - 69 °F 67% 29.88 in - ESE 17.3 mph - -  
6:00 AM 78.8 °F - 69.8 °F 74% 29.89 in - ESE 17.3 mph - N/A   Unknown
6:30 AM 78.8 °F - 68.0 °F 69% 29.89 in - ESE 17.3 mph - N/A   Unknown
7:00 AM 80.6 °F 83.2 °F 68.0 °F 65% 29.89 in - ESE 18.4 mph - N/A   Unknown
7:30 AM 80.6 °F 83.2 °F 68.0 °F 65% 29.92 in - ESE 18.4 mph - N/A   Unknown
8:00 AM 80.6 °F 83.2 °F 68.0 °F 65% 29.92 in - ESE 20.7 mph - N/A   Unknown
8:30 AM 80.6 °F 83.2 °F 68.0 °F 65% 29.92 in - ESE 21.9 mph - N/A   Unknown
9:00 AM 82 °F - 66 °F 50% 29.94 in - ESE 21.9 mph - -  
9:00 AM 82.4 °F 84.6 °F 66.2 °F 58% 29.95 in - ESE 21.9 mph - N/A   Unknown
9:30 AM 82.4 °F 85.4 °F 68.0 °F 62% 29.95 in - ESE 19.6 mph - N/A   Unknown
10:00 AM 82.4 °F 85.4 °F 68.0 °F 62% 29.95 in - ESE 19.6 mph - N/A   Unknown
10:30 AM 82.4 °F 85.4 °F 68.0 °F 62% 29.95 in - ESE 20.7 mph - N/A   Unknown
11:00 AM 84.2 °F 87.3 °F 68.0 °F 58% 29.92 in - ESE 20.7 mph - N/A   Unknown
11:30 AM 82.4 °F 85.4 °F 68.0 °F 62% 29.92 in - ESE 21.9 mph - N/A   Unknown
12:00 PM 82 °F - 68 °F 53% 29.92 in - ESE 23.0 mph - -  
12:00 PM 82.4 °F 85.4 °F 68.0 °F 62% 29.92 in - ESE 23.0 mph - N/A   Unknown
12:30 PM 84.2 °F 88.4 °F 69.8 °F 62% 29.92 in - SE 23.0 mph - N/A   Unknown
1:00 PM 84.2 °F 88.4 °F 69.8 °F 62% 29.89 in - SE 21.9 mph - N/A   Unknown
1:30 PM 82.4 °F 86.3 °F 69.8 °F 66% 29.89 in - SE 24.2 mph - N/A   Unknown
2:00 PM 80.6 °F 83.9 °F 69.8 °F 70% 29.89 in - SE 24.2 mph - N/A   Unknown
2:30 PM 82.4 °F 85.4 °F 68.0 °F 62% 29.89 in - SE 24.2 mph - N/A   Unknown
3:00 PM 82 °F - 68 °F 55% 29.88 in - SE 21.9 mph - -  
3:00 PM 82.4 °F 85.4 °F 68.0 °F 62% 29.89 in - SE 21.9 mph - N/A   Unknown
3:30 PM 80.6 °F 83.2 °F 68.0 °F 65% 29.89 in - ESE 24.2 mph - N/A   Unknown
4:00 PM 80.6 °F 83.9 °F 69.8 °F 70% 29.86 in - ESE 26.5 mph - N/A   Unknown
4:30 PM 80.6 °F 83.2 °F 68.0 °F 65% 29.86 in - ESE 26.5 mph - N/A   Unknown
5:00 PM 80.6 °F 83.2 °F 68.0 °F 65% 29.89 in - ESE 26.5 mph - N/A   Unknown
5:30 PM 80.6 °F 83.9 °F 69.8 °F 70% 29.89 in - ESE 26.5 mph - N/A   Unknown
6:00 PM 80 °F - 69 °F 61% 29.89 in - ESE 24.2 mph - -  
6:00 PM 80.6 °F 83.2 °F 68.0 °F 65% 29.89 in - ESE 24.2 mph - N/A   Unknown
6:30 PM 78.8 °F - 68.0 °F 69% 29.89 in - ESE 23.0 mph - N/A   Unknown
7:00 PM 78.8 °F - 69.8 °F 74% 29.92 in - ESE 20.7 mph - N/A   Unknown
7:30 PM 78.8 °F - 69.8 °F 74% 29.92 in - ESE 21.9 mph - N/A   Unknown
8:00 PM 78.8 °F - 69.8 °F 74% 29.92 in - ESE 25.3 mph - N/A   Unknown
8:30 PM 78.8 °F - 69.8 °F 74% 29.92 in - ESE 26.5 mph - N/A   Unknown
9:00 PM 79 °F - 70 °F 66% 29.93 in - ESE 23.0 mph - -  
9:00 PM 78.8 °F - 69.8 °F 74% 29.92 in - ESE 23.0 mph - N/A   Unknown
9:30 PM 78.8 °F - 69.8 °F 74% 29.92 in - ESE 24.2 mph - N/A   Unknown
10:00 PM 78.8 °F - 69.8 °F 74% 29.95 in - ESE 20.7 mph - N/A   Unknown
10:30 PM 78.8 °F - 69.8 °F 74% 29.95 in - ESE 18.4 mph - N/A   Unknown
11:00 PM 78.8 °F - 69.8 °F 74% 29.95 in - ESE 19.6 mph - N/A   Unknown
11:30 PM 78.8 °F - 69.8 °F 74% 29.92 in - ESE 20.7 mph - N/A   Unknown